GW4332 Weather Reports


time (UTC)temp
F
wind
direction
speed
knots
gust
knots
rain 1hr
in
rain 24hr
in
rain mn
in
humidity
%
barometer
mb
20260508203029 59 86 2.6 3.5 0.00 0.00 0.00 61 1019.1
20260508202030 60 85 1.7 2.6 0.00 0.00 0.00 60 1019.0
20260508201029 60 69 2.6 3.5 0.00 0.00 0.00 59 1019.0
20260508200030 61 57 3.5 4.3 0.00 0.00 0.00 59 1018.9
20260508195030 61 58 2.6 3.5 0.00 0.00 0.00 57 1018.9
20260508194030 62 67 1.7 3.5 0.00 0.00 0.00 56 1018.9
20260508193030 62 59 2.6 3.5 0.00 0.00 0.00 56 1018.7
20260508192029 63 57 1.7 5.2 0.00 0.00 0.00 55 1018.6
20260508191030 63 94 2.6 7.0 0.00 0.00 0.00 50 1018.5
20260508190029 64 107 1.7 6.1 0.00 0.00 0.00 50 1018.4
20260508185030 64 105 1.7 7.0 0.00 0.00 0.00 49 1018.2
20260508184030 65 106 1.7 6.1 0.00 0.00 0.00 48 1018.1
20260508183029 65 105 1.7 7.0 0.00 0.00 0.00 48 1018.1
20260508182030 65 89 0.9 3.5 0.00 0.00 0.00 47 1018.0
20260508181029 65 71 0.9 3.5 0.00 0.00 0.00 47 1018.0
20260508180030 65 85 1.7 3.5 0.00 0.00 0.00 46 1017.9
20260508175030 65 79 0.9 2.6 0.00 0.00 0.00 46 1017.8
20260508174030 65 81 0.9 2.6 0.00 0.00 0.00 48 1017.8
20260508173030 65 77 0.9 1.7 0.00 0.00 0.00 47 1017.9
20260508172029 65 95 0.0 1.7 0.00 0.00 0.00 48 1017.8
20260508171030 65 133 0.9 1.7 0.00 0.00 0.00 47 1017.7
20260508170030 65 91 1.7 6.1 0.00 0.00 0.00 48 1017.7
20260508165029 65 100 1.7 6.1 0.00 0.00 0.00 47 1017.7
20260508164030 65 73 0.0 3.5 0.00 0.00 0.00 47 1017.6
20260508163029 65 101 0.9 6.1 0.00 0.00 0.00 46 1017.5
20260508162030 65 121 1.7 9.6 0.00 0.00 0.00 46 1017.5
20260508161029 65 98 0.0 6.1 0.00 0.00 0.00 46 1017.6
20260508160030 65 118 0.9 7.8 0.00 0.00 0.00 46 1017.6
20260508155030 66 120 0.9 7.8 0.00 0.00 0.00 46 1017.6
20260508154030 66 91 0.9 6.1 0.00 0.00 0.00 46 1017.7
20260508153029 66 99 1.7 7.8 0.00 0.00 0.00 47 1017.8
20260508152030 66 98 0.9 3.5 0.00 0.00 0.00 46 1017.8
20260508151029 66 61 1.7 6.1 0.00 0.00 0.00 45 1017.9
20260508150030 66 83 1.7 9.6 0.00 0.00 0.00 46 1017.8
20260508145030 67 82 3.5 7.8 0.00 0.00 0.00 45 1017.8
20260508144030 67 57 1.7 7.0 0.00 0.00 0.00 43 1017.8
20260508143030 68 105 2.6 10.4 0.00 0.00 0.00 42 1017.9
20260508142029 68 58 2.6 9.6 0.00 0.00 0.00 44 1017.9
20260508141030 67 88 3.5 10.4 0.00 0.00 0.00 45 1018.0
20260508140030 67 86 3.5 10.4 0.00 0.00 0.00 45 1018.0
20260508135030 67 87 2.6 10.4 0.00 0.00 0.00 44 1018.0
20260508134029 67 106 2.6 9.6 0.00 0.00 0.00 46 1018.1
20260508133030 67 119 1.7 10.4 0.00 0.00 0.00 46 1018.1
20260508132029 66 153 1.7 11.3 0.00 0.00 0.00 47 1018.1
20260508131030 66 105 4.3 15.6 0.00 0.00 0.00 49 1018.2
20260508130029 65 60 1.7 8.7 0.00 0.00 0.00 50 1018.2
20260508125029 64 86 0.0 9.6 0.00 0.00 0.00 52 1018.3
20260508124030 62 124 1.7 7.0 0.00 0.00 0.00 53 1018.3
20260508123030 61 81 5.2 12.2 0.00 0.00 0.00 52 1018.3
20260508122030 62 111 2.6 12.2 0.00 0.00 0.00 53 1018.3
20260508121030 62 91 6.1 12.2 0.00 0.00 0.00 53 1018.4
20260508120030 62 110 2.6 8.7 0.00 0.00 0.00 53 1018.3
20260508115030 63 149 2.6 14.8 0.00 0.00 0.00 53 1018.4
20260508114029 63 104 3.5 13.0 0.00 0.00 0.00 56 1018.4
20260508113030 62 103 3.5 13.0 0.00 0.00 0.00 56 1018.4
20260508112029 61 91 5.2 17.4 0.00 0.00 0.00 59 1018.6
20260508111030 60 107 4.3 15.6 0.00 0.00 0.00 59 1018.5
20260508110029 60 60 2.6 13.9 0.00 0.00 0.00 58 1018.6
20260508105030 60 121 5.2 20.9 0.00 0.00 0.00 60 1018.6
20260508104029 59 100 4.3 13.0 0.00 0.00 0.00 61 1018.7
20260508103030 59 111 4.3 18.2 0.00 0.00 0.00 62 1018.7
20260508102029 58 226 0.9 12.2 0.00 0.00 0.00 64 1018.7
20260508101029 58 320 0.9 17.4 0.00 0.00 0.00 64 1018.7
20260508100030 58 111 1.7 18.2 0.00 0.00 0.00 65 1018.7
20260508095029 57 137 1.7 15.6 0.00 0.00 0.00 66 1018.8
20260508094030 57 270 0.9 13.9 0.00 0.00 0.00 66 1018.8
20260508093029 56 185 1.7 16.5 0.00 0.00 0.00 67 1018.8
20260508092030 56 102 1.7 13.0 0.00 0.00 0.00 67 1018.8
20260508091030 56 93 3.5 16.5 0.00 0.00 0.00 69 1018.8
20260508090029 55 121 3.5 16.5 0.00 0.00 0.00 70 1018.9
20260508085030 55 268 0.9 10.4 0.00 0.00 0.00 71 1018.9
20260508084030 55 289 0.9 9.6 0.00 0.00 0.00 72 1019.0
20260508083029 54 130 1.7 13.9 0.00 0.00 0.00 73 1019.0
20260508082030 54 102 2.6 12.2 0.00 0.00 0.00 74 1019.0
20260508081029 53 91 4.3 14.8 0.00 0.00 0.00 75 1018.9
20260508080030 53 124 3.5 12.2 0.00 0.00 0.00 75 1018.9
20260508075030 53 127 4.3 13.9 0.00 0.00 0.00 75 1019.0
20260508074029 53 274 0.9 13.0 0.00 0.00 0.00 75 1019.0
20260508073030 52 90 5.2 15.6 0.00 0.00 0.00 76 1018.9
20260508072029 52 103 1.7 13.0 0.00 0.00 0.00 77 1019.1
20260508071030 51 139 1.7 13.0 0.00 0.00 0.00 77 1019.0
20260508070030 51 188 0.9 12.2 0.00 0.00 0.00 78 1019.0
20260508065030 51 77 1.7 12.2 0.00 0.00 0.00 79 1018.9
20260508064030 51 116 3.5 11.3 0.00 0.00 0.00 80 1018.9
20260508063030 50 150 0.9 8.7 0.00 0.00 0.00 81 1018.8
20260508062030 50 52 0.9 7.8 0.00 0.00 0.00 82 1018.7
20260508061030 50 97 1.7 9.6 0.00 0.00 0.00 82 1018.6
20260508060029 50 87 2.6 10.4 0.00 0.00 0.00 83 1018.5
20260508055030 50 84 1.7 10.4 0.00 0.00 0.00 83 1018.4
20260508054029 49 97 0.0 10.4 0.00 0.00 0.00 83 1018.3
20260508053030 49 278 0.0 6.1 0.00 0.00 0.00 84 1018.2
20260508052029 49 115 0.9 10.4 0.00 0.00 0.00 85 1018.2
20260508051029 49 138 0.9 10.4 0.00 0.00 0.00 84 1018.1
20260508050030 49 108 0.9 9.6 0.00 0.00 0.00 85 1018.1
20260508045029 48 81 0.9 9.6 0.00 0.00 0.00 85 1018.1
20260508044030 48 199 1.7 7.8 0.00 0.00 0.00 85 1018.1
20260508043029 48 108 0.0 7.8 0.00 0.00 0.00 84 1018.0
20260508042030 48 74 0.9 7.8 0.00 0.00 0.00 84 1018.0
20260508041030 48 183 0.0 7.8 0.00 0.00 0.00 84 1017.9
20260508040030 48 91 0.9 6.1 0.00 0.00 0.00 84 1017.9
20260508035030 48 91 0.9 7.0 0.00 0.00 0.00 83 1018.0
20260508034029 49 99 1.7 7.8 0.00 0.00 0.00 83 1018.0
20260508033030 49 71 0.9 6.1 0.00 0.00 0.00 83 1017.9
20260508032030 49 102 1.7 6.1 0.00 0.00 0.00 82 1017.9
20260508031030 49 107 0.9 7.0 0.00 0.00 0.00 82 1017.8
20260508030030 49 130 0.0 8.7 0.00 0.00 0.00 82 1017.8
20260508025030 49 356 0.0 7.0 0.00 0.00 0.00 82 1017.8
20260508024029 49 120 0.9 7.8 0.00 0.00 0.00 81 1017.8
20260508023030 49 86 1.7 9.6 0.00 0.00 0.00 81 1017.8
20260508022029 49 136 0.9 8.7 0.00 0.00 0.00 81 1017.8
20260508021029 49 115 1.7 10.4 0.00 0.00 0.00 81 1017.8
20260508020030 50 106 1.7 9.6 0.00 0.00 0.00 80 1017.6
20260508015029 50 124 1.7 8.7 0.00 0.00 0.00 80 1017.7
20260508014030 50 142 1.7 8.7 0.00 0.00 0.00 79 1017.8
20260508013030 50 136 1.7 9.6 0.00 0.00 0.00 79 1017.8
20260508012030 50 144 0.9 12.2 0.00 0.00 0.00 79 1017.8
20260508011029 50 120 1.7 10.4 0.00 0.00 0.00 78 1017.9
20260508010030 50 115 2.6 9.6 0.00 0.00 0.00 78 1018.0
20260508005030 50 120 1.7 10.4 0.00 0.00 0.00 78 1018.0
20260508004030 50 143 1.7 7.8 0.00 0.00 0.00 78 1017.8
20260508003029 50 127 1.7 7.8 0.00 0.00 0.00 77 1017.9
20260508002030 50 102 1.7 7.0 0.00 0.00 0.00 77 1017.9
20260508001029 51 123 1.7 7.8 0.00 0.00 0.00 76 1017.9
20260508000030 51 117 1.7 8.7 0.00 0.00 0.00 75 1017.8
20260507235030 51 129 0.9 7.8 0.00 0.00 0.00 75 1017.9
20260507234029 51 123 0.9 6.1 0.00 0.00 0.00 74 1017.9
20260507233030 51 105 0.9 7.8 0.00 0.00 0.00 74 1017.9
20260507232029 52 88 1.7 8.7 0.00 0.00 0.00 73 1017.9
20260507231030 52 136 1.7 8.7 0.00 0.00 0.00 73 1017.9
20260507230030 52 267 0.9 11.3 0.00 0.00 0.00 72 1017.9
20260507225029 53 95 1.7 10.4 0.00 0.00 0.00 71 1017.9
20260507224030 53 139 1.7 10.4 0.00 0.00 0.00 71 1017.8
20260507223029 53 135 1.7 10.4 0.00 0.00 0.00 70 1017.9
20260507222030 54 89 3.5 11.3 0.00 0.00 0.00 69 1017.9
20260507221030 54 126 1.7 11.3 0.00 0.00 0.00 69 1017.8
20260507220029 55 93 5.2 11.3 0.00 0.00 0.00 69 1017.8
20260507215030 55 110 2.6 9.6 0.00 0.00 0.00 68 1017.8
20260507214029 55 107 3.5 8.7 0.00 0.00 0.00 68 1017.8
20260507213030 55 183 0.9 8.7 0.00 0.00 0.00 68 1017.8
20260507212030 55 132 2.6 10.4 0.00 0.00 0.00 68 1017.7
20260507211030 56 132 2.6 11.3 0.00 0.00 0.00 69 1017.7
20260507210029 56 124 1.7 11.3 0.00 0.00 0.00 70 1017.7
20260507205030 56 101 4.3 9.6 0.00 0.00 0.00 70 1017.7
20260507204029 55 107 4.3 8.7 0.00 0.00 0.00 70 1017.6